Regional Weather Roundup
Issued by NWS

Home | Current Version | Previous Version | Graphics & Text | Print | Product List | Glossary On
Versions: 1 2 3 4 5 6 7 8 9 10 11 12 13 14 15 16 17 18 19 20 21 22 23 24 25 26 27 28 29 30 31 32 33 34 35 36 37 38 39 40 41 42 43 44 45 46 47 48 49 50
000
ASUS43 KMPX 311001
RWRMN
WEATHER ROUNDUP FOR MINNESOTA
NATIONAL WEATHER SERVICE TWIN CITIES/CHANHASSEN MN
500 AM CDT FRI OCT 31 2014


NOTE: "FAIR" INDICATES FEW OR NO CLOUDS BELOW 12,000 FEET WITH NO
SIGNIFICANT WEATHER AND/OR OBSTRUCTIONS TO VISIBILITY. N/A MEANS
CURRENT SKY AND/OR WEATHER CONDITIONS ARE NOT AVAILABLE.

MNZ060>063-068>070-311100-
   Twin Cities Metro

CITY           SKY/WX    TMP DP  RH WIND       PRES   REMARKS
TWIN CITIES    CLEAR     28  16  60 N15       30.47R WCI  16
ST PAUL        CLEAR     29  17  61 N12       30.48R WCI  19
CRYSTAL        CLEAR     28  17  63 N8        30.47R WCI  20
BLAINE         CLEAR     28  19  69 N9        30.47R WCI  20
LAKEVILLE      CLEAR     27  18  69 N10       30.46R WCI  17
EDEN PRAIRIE   CLEAR     29  17  61 N12G21    30.46R WCI  19
SOUTH ST PAUL  CLEAR     30  18  60 N13G22    30.46R WCI  20
LAKE ELMO      FAIR      28  19  69 N7        30.46R WCI  21
$$
MNZ001>005-007-008-013>017-022>024-027-028-311100-
   Northwest Minnesota

CITY           SKY/WX    TMP DP  RH WIND       PRES   REMARKS
BEMIDJI        CLEAR     24  16  73 N3        30.54R
HALLOCK        PTCLDY    16  14  93 CALM      30.59F
ROSEAU         CLEAR     19  16  86 N5        30.59S WCI  13
WARROAD        CLOUDY    21  18  86 NW6       30.58S WCI  14
THIEF RVR FALL CLEAR     21  16  79 N7        30.57S WCI  13
CROOKSTON      CLEAR     18  16  93 CALM      30.59F
FOSSTON        CLEAR     16  12  86 CALM      30.56S
DETROIT LAKES  CLEAR     23  21  93 N3        30.54F
MOORHEAD       CLEAR     18  18 100 N6        30.59S WCI   9
PARK RAPIDS    CLEAR     17  14  88 NW7       30.52S WCI   8
MAHNOMEN       FAIR      18  15  88 NE5       30.55F WCI  11
$$
MNZ006-009>011-018-025>026-311100-
   North Central Minnesota

CITY           SKY/WX    TMP DP  RH WIND       PRES   REMARKS
BAUDETTE       CLEAR     24  18  77 CALM      30.56S
FLAG ISLAND    CLOUDY    28  21  74 NW10      30.57R WCI  19
INTL FALLS     PTCLDY    27  17  66 N8        30.53S WCI  19
WASKISH        CLEAR     23  18  80 CALM      30.56R
BIG FORK       PTCLDY    27  18  69 N7        30.52S WCI  19
LONGVILLE      MOCLDY    27  18  69 N5        30.52R WCI  21
GRAND RAPIDS   PTCLDY    25  16  68 N9G18     30.50R WCI  15
CRANE LAKE     CLOUDY    27  19  74 N7        30.53S WCI  19
ORR            CLOUDY    25  18  74 CALM      30.49R
COOK           CLOUDY    27  19  74 N6        30.50S WCI  20
WALKER         CLOUDY    25  16  68 N3        30.52S
$$
MNZ012-019>021-037-311100-
   Northeast Minnesota

CITY           SKY/WX    TMP DP  RH WIND       PRES   REMARKS
DULUTH         CLOUDY    27  16  63 N16G25    30.46R WCI  15
ELY            CLEAR     25  18  74 N5        30.46R WCI  19
HIBBING        CLOUDY    27  16  63 N8        30.49R WCI  19
EVELETH        CLOUDY    27  19  74 N7G16     30.48R WCI  19
DULUTH HARBOR  MOCLDY    32  21  64 N20G25    30.50R WCI  20
TWO HARBORS    CLOUDY    30  21  69 N6        30.45R WCI  24
SILVER BAY     CLEAR     28  18  64 N6        30.44R WCI  22
GRAND MARAIS     N/A     29  18  63 CALM      30.44R
G MARAIS ARPRT CLEAR     21  16  79 N21G26    30.35R WCI   6
$$
MNZ029>031-032-039>041-046>048-054>057-064-311100-
   West Central Minnesota

CITY           SKY/WX    TMP DP  RH WIND       PRES   REMARKS
FERGUS FALLS   CLEAR     18  16  93 N7        30.58S WCI   8
WHEATON        CLEAR     18  16  93 N7        30.59S WCI   8
MORRIS         CLEAR     19  18  93 NW7       30.55R WCI  10
ALEXANDRIA     CLEAR     26  18  71 N8        30.53R WCI  18
ELBOW LAKE     FAIR      20  18  92 N7        30.55S WCI  11
WADENA         CLEAR     18  16  93 NW3       30.53S
GLENWOOD       CLEAR     25  19  80 N8        30.53R WCI  16
APPLETON       CLEAR     25  19  80 N8        30.56R WCI  16
BENSON         CLEAR     19  18  93 N8        30.55R WCI   9
ORTONVILLE     CLEAR     21  18  86 N7        30.56R WCI  13
MADISON        CLEAR     27  23  86 N7        30.56R WCI  19
WILLMAR        FAIR      27  19  74 N9        30.54R WCI  17
$$
MNZ033>034-036-042>043-049>051-058-059-311100-
   Central Minnesota

CITY           SKY/WX    TMP DP  RH WIND       PRES   REMARKS
ST CLOUD       CLEAR     27  17  66 NW8       30.51R WCI  19
SAUK CENTRE    FAIR      25  17  73 N9        30.53R WCI  15
PAYNESVILLE    CLEAR     22  16  80 W8        30.52R WCI  12
AITKIN         MOCLDY    27  18  69 CALM      30.50R
PINE RIVER     PTCLDY    27  18  69 N6        30.54R WCI  20
BRAINERD       CLEAR     26  17  68 N9        30.52R WCI  17
STAPLES        CLEAR     19  16  86 N3        30.52S
LONG PRAIRIE   FAIR      23  18  80 NW6       30.53R WCI  16
LITTLE FALLS   CLEAR     27  18  69 N3        30.53R
LITCHFIELD     CLEAR     25  19  80 N9        30.52R WCI  15
BUFFALO        CLEAR     28  19  69 N6        30.51R WCI  21
MAPLE LAKE     CLEAR     28  20  70 NW12      30.51R WCI  18
$$
MNZ037-044-045-052-053-311100-
   East Central Minnesota

CITY           SKY/WX    TMP DP  RH WIND       PRES   REMARKS
PRINCETON      CLEAR     28  18  64 N12       30.50R WCI  18
MORA           CLEAR     27  18  69 N7        30.51R WCI  19
CAMBRIDGE      CLEAR     28  18  64 N9        30.47R WCI  20
RUSH CITY      CLEAR     27  17  64 N10       30.48R WCI  17
MOOSE LAKE     MOCLDY    28  18  64 N13G20    30.47R WCI  18
HINCKLEY       FAIR      28  18  64 N16       30.48R WCI  17
CLOQUET        CLOUDY    27  16  63 N10       30.48R WCI  17
MCGREGOR       CLOUDY    28  19  69 N8        30.51R WCI  20
$$
MNZ071>073-080-081-089-090-097-098-311100-
   Southwest Minnesota

CITY           SKY/WX    TMP DP  RH WIND       PRES   REMARKS
MONTEVIDEO     CLEAR     23  21  93 N12       30.56R WCI  12
GRANITE FALLS  CLEAR     23  20  88 NW7       30.55S WCI  15
CANBY          CLEAR     22  21  95 NW7       30.56S WCI  13
MARSHALL       CLEAR     21  16  79 NW9       30.52R WCI  11
REDWOOD FALLS  CLEAR     25  19  78 NW9       30.52R WCI  15
OLIVIA         CLEAR     23  19  86 NW6       30.52R WCI  16
PIPESTONE      CLEAR     25  19  80 NE8       30.50R WCI  16
WINDOM         CLEAR     25  19  80 NW13      30.49R WCI  13
WORTHINGTON    CLEAR     21  18  86 N12       30.49R WCI   9
JACKSON        CLEAR     27  19  74 N12       30.48R WCI  16
TRACY          CLEAR     24  21  87 N10G16    30.52R WCI  14
SLAYTON        CLEAR     23  20  91 N13       30.50R WCI  11
$$
MNZ065>067-074>077-082>085-091>093-311100-
   South Central Minnesota

CITY           SKY/WX    TMP DP  RH WIND       PRES   REMARKS
MANKATO        CLEAR     27  12  54 N8        30.47R WCI  18
NEW ULM        CLEAR     25  19  80 NW13      30.49R WCI  13
ST JAMES       CLEAR     27  19  74 NW10      30.50R WCI  17
FAIRMONT       CLEAR     27  16  63 N14       30.47R WCI  15
GLENCOE        CLEAR     28  19  71 NW7       30.49R WCI  20
FARIBAULT      CLEAR     28  18  64 N12G18    30.44R WCI  18
OWATONNA       CLEAR     27  16  63 N14G22    30.43R WCI  15
WASECA         CLEAR     25  14  63 N8        30.47R WCI  16
ALBERT LEA     CLEAR     27  18  69 NW8G16    30.42R WCI  18
$$
MNZ078>079-086>088-094>096-311100-
   Southeast Minnesota

CITY           SKY/WX    TMP DP  RH WIND       PRES   REMARKS
ROCHESTER      CLEAR     26  17  68 N15       30.38R WCI  14
RED WING       CLEAR     28  16  59 N12G17    30.42R WCI  18
STANTON        CLEAR     28  18  64 N10       30.43R WCI  19
DODGE CENTER   CLEAR     27  19  74 N18       30.39R WCI  13
WINONA         CLEAR     32  21  64 NW14G21   30.37R WCI  22
AUSTIN         CLEAR     27  18  69 N13G22    30.39R WCI  16
PRESTON        CLEAR     26  18  70 N18G25    30.35R WCI  13
$$
ABBREVIATIONS USED IN REMARKS
   TC - TEMPERATURES IN CELSIUS
  WCI - WIND CHILL INDEX
   HX - HEAT INDEX
  VSB - VISIBILITY
$$



USA.gov is the U.S. government's official web portal to all federal, state and local government web resources and services.